Weatherford, Texas, United States (76085)
Lat: 32.76N, Lon: 97.8W
Wx Zone: TXZ117
Local Info
Past Weather Observations for Sunday, April 20, 2014

NOTE: This archive is for the closest National Weather Service station to Weatherford. Information may differ from the station used for current weather conditions.

Time Weather Temperature Dewpoint Humidity Pressure Winds Precip Visibility
23:53
Overcast
64°F / 18°C 63°F / 17°C 94% 30.04 in
(1017 mb)
SE 12.7 mph
(SE 20 kph)
- 7SM
22:53
Overcast
Fog And Mist
64°F / 18°C 63°F / 17°C 94% 30.04 in
(1017 mb)
SE 10.4 mph
(SE 17 kph)
0.00 in
(0.00 mm)
5SM
22:40
Overcast
Fog And Mist
64°F / 18°C 63°F / 17°C 94% 30.04 in
(1017 mb)
SE 12.7 mph
(SE 20 kph)
0.00 in
(0.00 mm)
4SM
22:30
Overcast
Light Rain
64°F / 18°C 63°F / 17°C 94% 30.04 in
(1017 mb)
SE 10.4 mph
(SE 17 kph)
0.00 in
(0.00 mm)
4SM
22:26
Overcast
Light Rain
64°F / 18°C 63°F / 17°C 94% 30.04 in
(1017 mb)
SE 9.2 mph
(SE 15 kph)
0.00 in
(0.00 mm)
4SM
22:16
Overcast
Light Rain
64°F / 18°C 63°F / 17°C 94% 30.04 in
(1017 mb)
SE 10.4 mph
(SE 17 kph)
0.00 in
(0.00 mm)
4SM
22:07
Overcast
Fog And Mist
64°F / 18°C 63°F / 17°C 94% 30.04 in
(1017 mb)
SE 9.2 mph
(SE 15 kph)
- 4SM
21:53
Overcast
Fog And Mist
64°F / 18°C 63°F / 17°C 94% 30.04 in
(1017 mb)
SE 10.4 mph
(SE 17 kph)
0.02 in
(0.51 mm)
4SM
21:48
Overcast
Fog And Mist
64°F / 18°C 63°F / 17°C 94% 30.04 in
(1017 mb)
SE 8.1 mph
(SE 13 kph)
0.02 in
(0.51 mm)
4SM
21:34
Overcast
Fog And Mist
64°F / 18°C 63°F / 17°C 94% 30.04 in
(1017 mb)
SE 10.4 mph
(SE 17 kph)
0.02 in
(0.51 mm)
4SM
21:11
Overcast
Light Rain
64°F / 18°C 63°F / 17°C 94% 30.06 in
(1018 mb)
SE 8.1 mph
(SE 13 kph)
0.02 in
(0.51 mm)
3SM
20:53
Overcast
Light Rain
64°F / 18°C 63°F / 17°C 94% 30.04 in
(1017 mb)
SE 6.9 mph
(SE 11 kph)
0.05 in
(1.27 mm)
1 3/4SM
20:29
Overcast
Light Rain
64°F / 18°C 63°F / 17°C 94% 30.04 in
(1017 mb)
SE 9.2 mph
(SE 15 kph)
0.03 in
(0.76 mm)
2SM
20:06
Overcast
Light Rain
64°F / 18°C 63°F / 17°C 94% 30.04 in
(1017 mb)
SE 8.1 mph
(SE 13 kph)
0.01 in
(0.25 mm)
2SM
19:53
Overcast
Light Rain
64°F / 18°C 63°F / 17°C 94% 30.04 in
(1017 mb)
ESE 6.9 mph
(ESE 11 kph)
0.08 in
(2.03 mm)
4SM
19:46
Overcast
Light Rain
64°F / 18°C 63°F / 17°C 94% 30.04 in
(1017 mb)
ESE 4.6 mph
(ESE 7 kph)
0.08 in
(2.03 mm)
4SM
19:37
Overcast
Light Rain
64°F / 18°C 63°F / 17°C 94% 30.04 in
(1017 mb)
E 6.9 mph
(E 11 kph)
0.08 in
(2.03 mm)
5SM
19:26
Overcast
Heavy Rain
64°F / 18°C 63°F / 17°C 94% 30.04 in
(1017 mb)
ENE 4.6 mph
(ENE 7 kph)
0.07 in
(1.78 mm)
2SM
19:13
Overcast
Light Rain
64°F / 18°C 63°F / 17°C 94% 30.04 in
(1017 mb)
E 3.5 mph
(E 6 kph)
0.01 in
(0.25 mm)
3SM
18:53
Overcast
Light Rain
64°F / 18°C 63°F / 17°C 94% 30.04 in
(1017 mb)
E 5.8 mph
(E 9 kph)
0.01 in
(0.25 mm)
2SM
18:35
Overcast
Light Rain
64°F / 18°C 63°F / 17°C 94% 30.04 in
(1017 mb)
E 4.6 mph
(E 7 kph)
0.00 in
(0.00 mm)
4SM
17:53
Overcast
Light Rain
64°F / 18°C 63°F / 17°C 94% 30.04 in
(1017 mb)
E 5.8 mph
(E 9 kph)
0.07 in
(1.78 mm)
7SM
16:53
Overcast
Light Rain
64°F / 18°C 63°F / 17°C 94% 30.04 in
(1017 mb)
SE 4.6 mph
(SE 7 kph)
0.07 in
(1.78 mm)
8SM
16:31
Overcast
Rain
64°F / 18°C 63°F / 17°C 94% 30.04 in
(1017 mb)
Calm 0.07 in
(1.78 mm)
3SM
16:06
Overcast
Thunder Storms
64°F / 18°C 63°F / 17°C 94% 30.04 in
(1017 mb)
Calm 0.02 in
(0.51 mm)
4SM
15:57
Overcast
Thunder Storms
64°F / 18°C 63°F / 17°C 94% 30.04 in
(1017 mb)
Calm 0.00 in
(0.00 mm)
2SM
15:53
Overcast
Thunder Storms
64°F / 18°C 63°F / 17°C 94% 30.04 in
(1017 mb)
WNW 3.5 mph
(WNW 6 kph)
0.71 in
(18.03 mm)
1 1/2SM
15:43
Overcast
Thunder Storms
63°F / 17°C 63°F / 17°C 100% 30.06 in
(1018 mb)
W 6.9 mph
(W 11 kph)
0.65 in
(16.51 mm)
1SM
15:36
Overcast
Thunder Storms
63°F / 17°C 61°F / 16°C 94% 30.06 in
(1018 mb)
S 5.8 mph
(S 9 kph)
0.57 in
(14.48 mm)
1/4SM
15:29
Overcast
Thunder Storms
70°F / 21°C 61°F / 16°C 73% 30.06 in
(1018 mb)
S 16.1 mph
(S 26 kph)
0.30 in
(7.62 mm)
1SM
15:22
Overcast
Thunder Storms
70°F / 21°C 59°F / 15°C 69% 30.04 in
(1017 mb)
SSE 12.7 mph
(SSE 20 kph)
- 10SM
15:12
Overcast
Thunder Storms
70°F / 21°C 59°F / 15°C 69% 30.01 in
(1016 mb)
SSE 12.7 mph
(SSE 20 kph)
- 10SM
14:53
Overcast
72°F / 22°C 59°F / 15°C 65% 30.04 in
(1017 mb)
S 16.1 mph
(S 26 kph)
- 10SM
13:53
Overcast
73°F / 23°C 57°F / 14°C 57% 30.04 in
(1017 mb)
S 13.8 mph
(S 22 kph)
- 10SM
12:53
Overcast
75°F / 24°C 55°F / 13°C 50% 30.06 in
(1018 mb)
SSE 13.8 mph
(SSE 22 kph)
- 10SM
11:53
Overcast
75°F / 24°C 54°F / 12°C 47% 30.09 in
(1019 mb)
SSE 11.5 mph
(SSE 19 kph)
- 10SM
10:53
Overcast
75°F / 24°C 54°F / 12°C 47% 30.09 in
(1019 mb)
S 16.1 mph
(S 26 kph)
- 10SM
09:53
Overcast
70°F / 21°C 57°F / 14°C 64% 30.12 in
(1020 mb)
Variable 3.5 mph
(Variable 6 kph)
- 10SM
08:53
Partly Cloudy
66°F / 19°C 57°F / 14°C 73% 30.09 in
(1019 mb)
SSE 8.1 mph
(SSE 13 kph)
0.00 in
(0.00 mm)
10SM
07:53
Mostly Cloudy
Light Rain
61°F / 16°C 57°F / 14°C 88% 30.06 in
(1018 mb)
S 6.9 mph
(S 11 kph)
0.02 in
(0.51 mm)
10SM
06:53
Overcast
Rain
61°F / 16°C 55°F / 13°C 83% 30.09 in
(1019 mb)
SE 11.5 mph
(SE 19 kph)
0.03 in
(0.76 mm)
4SM
05:53
Clear
59°F / 15°C 55°F / 13°C 88% 30.09 in
(1019 mb)
SE 4.6 mph
(SE 7 kph)
- 10SM
04:53
Clear
61°F / 16°C 54°F / 12°C 77% 30.06 in
(1018 mb)
S 6.9 mph
(S 11 kph)
0.00 in
(0.00 mm)
10SM
04:37
Clear
61°F / 16°C 54°F / 12°C 77% 30.06 in
(1018 mb)
S 9.2 mph
(S 15 kph)
0.00 in
(0.00 mm)
10SM
04:22
Partly Cloudy
Thunder Storms
61°F / 16°C 54°F / 12°C 77% 30.06 in
(1018 mb)
S 11.5 mph
(S 19 kph)
0.00 in
(0.00 mm)
10SM
03:53
Partly Cloudy
63°F / 17°C 54°F / 12°C 73% 30.06 in
(1018 mb)
SW 9.2 mph
(SW 15 kph)
0.00 in
(0.00 mm)
10SM
03:40
Clear
61°F / 16°C 54°F / 12°C 77% 30.04 in
(1017 mb)
SE 17.3 mph
(SE 28 kph)
0.00 in
(0.00 mm)
10SM
03:26
Partly Cloudy
Thunder Storms
61°F / 16°C 54°F / 12°C 77% 30.06 in
(1018 mb)
SE 12.7 mph
(SE 20 kph)
0.00 in
(0.00 mm)
10SM
03:11
Clear
Thunder Storms
63°F / 17°C 54°F / 12°C 73% 30.06 in
(1018 mb)
SE 15 mph
(SE 24 kph)
- 10SM
02:53
Clear
63°F / 17°C 54°F / 12°C 73% 30.09 in
(1019 mb)
S 9.2 mph
(S 15 kph)
- 10SM
01:53
Clear
61°F / 16°C 54°F / 12°C 77% 30.06 in
(1018 mb)
SE 10.4 mph
(SE 17 kph)
- 10SM
00:53
Clear
63°F / 17°C 54°F / 12°C 73% 30.09 in
(1019 mb)
SE 9.2 mph
(SE 15 kph)
- 10SM
Time Weather Temperature Dewpoint Humidity Pressure Winds Precip Visibility


Weather for websites

WeatherForYou.com, LLC is not responsible for any damages or problems caused by this service. Current weather conditions are obtained from the closest station including government and personal stations which may have varying degrees of accuracy. Weather forecasts are derived from the NOAA NDFD. Like all things, this site belongs to Jesus Christ... He just trusts me to maintain it. If you have any questions or comments email webmaster@weatherforyou.com

Copyright © 2014, WeatherForYou.com LLC. All rights reserved.